Tracking 18795 objects as of 23-August-2017
HD Live streaming from Space Station
objects crossing your sky now

SL-16 DEB

Track SL-16 DEB now!
10-day predictions


NORAD ID: 22453
Int'l Code: 1992-093ES
Perigee: 824.2 km
Apogee: 1,080.7 km
Inclination: 70.8 °
Period: 104.0 minutes
Semi major axis: 7323 km
RCS: 0.0192 m2 (small)
Launch date: December 25, 1992
Source: Commonwealth of Independent States (former USSR) (CIS)
Launch site: TYURATAM MISSILE AND SPACE COMPLEX (TTMTR)

Note: This is SATELLITE DEBRIS
Your satellite tracking list
Your tracking list is empty





NASA's NSSDC Master Catalog

Two Line Element Set (TLE):
1 22453U 92093ES  17234.51118253 +.00000106 +00000-0 +11878-3 0  9997
2 22453 070.8052 172.2985 0175140 334.4259 140.6030 13.85253784240727
Source of the keplerian elements: AFSPC